Location: Bazugues
(43.4465°N, 0.3432°E)
Time: 14:05:17
(UTC+00:00)

BREEZE-M DEB (TANK) - Visible Passes

Search period start: 11 April 2026 00:00
Search period end: 21 April 2026 00:00
Orbit: 617 x 17094 km, 49.5° (Epoch: 11 April)

Date Brightness Start Highest point End Pass type
(mag) Time Alt. Az. Time Alt. Az. Time Alt. Az.
11 Apr 8.8 01:28:48 10° S 02:57:27 39° SE 03:18:17 10° ENE visible
12 Apr 7.7 03:37:52 10° SSW 05:09:56 68° SE 05:23:38 10° ENE visible
13 Apr 9.1 00:25:41 10° SSE 01:36:33 27° ESE 01:59:55 10° ENE visible
14 Apr 8.2 02:11:04 10° S 03:50:07 54° SE 04:07:43 10° ENE visible
14 Apr 9.2 23:39:41 10° SE 00:16:39 16° ESE 00:36:21 10° E visible
15 Apr 7.2 04:41:12 10° SW 06:00:50 85° SSE 06:11:57 10° ENE visible
16 Apr 8.7 00:55:23 10° S 02:29:15 41° SE 02:51:02 10° ENE visible
17 Apr 7.7 03:04:06 10° SSW 04:42:02 70° SE 04:56:23 10° ENE visible
17 Apr 9.0 23:52:22 10° SSE 01:08:14 29° ESE 01:32:47 10° ENE visible
19 Apr 8.2 01:37:29 10° S 03:22:00 56° SE 03:40:26 10° ENE visible
19 Apr 9.2 23:05:56 10° SE 23:48:21 17° ESE 00:09:53 10° E visible
20 Apr 7.2 04:07:37 10° SW 05:33:05 86° SSE 05:44:43 10° ENE visible
